GW3838 Weather Reports


Display with metric or nautical units.
time (UTC)temp
F
wind
direction
speed
MPH
gust
MPH
rain 1hr
in
rain 24hr
in
rain mn
in
humidity
%
barometer
mb
20260507191838 76 261 6.0 11.0 0.00 0.40 0.40 84 1016.5
20260507191335 76 223 3.0 5.0 0.00 0.40 0.40 85 1016.6
20260507190832 76 192 5.0 8.0 0.00 0.40 0.40 84 1016.5
20260507190330 76 163 1.0 6.0 0.00 0.40 0.40 83 1016.8
20260507185829 77 207 4.0 7.0 0.00 0.40 0.40 81 1016.6
20260507185325 77 247 7.0 11.0 0.00 0.40 0.40 80 1016.8
20260507184822 77 254 5.0 11.0 0.00 0.40 0.40 80 1016.8
20260507184320 78 257 5.0 10.0 0.00 0.40 0.40 79 1016.7
20260507183817 78 223 7.0 9.0 0.00 0.40 0.40 79 1017.0
20260507183314 78 242 8.0 17.0 0.00 0.40 0.40 78 1017.3
20260507182811 78 278 4.0 14.0 0.00 0.40 0.40 79 1017.0
20260507182307 78 290 5.0 9.0 0.00 0.40 0.40 79 1017.0
20260507181803 78 276 9.0 14.0 0.00 0.40 0.40 79 1017.0
20260507181259 78 222 4.0 8.0 0.00 0.40 0.40 80 1016.5
20260507180756 78 270 7.0 15.0 0.00 0.40 0.40 79 1016.6
20260507180253 78 238 8.0 15.0 0.00 0.40 0.40 80 1016.8
20260507175748 78 260 6.0 17.0 0.00 0.40 0.40 81 1016.7
20260507175246 78 203 10.0 13.0 0.00 0.40 0.40 81 1016.4
20260507174743 77 182 3.0 14.0 0.00 0.40 0.40 81 1016.5
20260507174241 76 279 7.0 11.0 0.00 0.40 0.40 82 1016.7
20260507173738 76 251 13.0 20.0 0.00 0.40 0.40 81 1016.9
20260507173235 76 289 7.0 10.0 0.00 0.40 0.40 82 1016.8
20260507172731 76 238 6.0 21.0 0.00 0.40 0.40 81 1017.1
20260507172229 76 238 10.0 15.0 0.00 0.40 0.40 81 1016.7
20260507171728 76 257 6.0 10.0 0.00 0.40 0.40 82 1016.5
20260507171226 76 228 3.0 11.0 0.00 0.40 0.40 82 1016.6
20260507170723 76 245 5.0 13.0 0.00 0.40 0.40 81 1016.9
20260507170220 76 249 7.0 16.0 0.00 0.40 0.40 81 1016.6
20260507165715 77 241 8.0 15.0 0.00 0.40 0.40 81 1016.9
20260507165212 76 237 5.0 14.0 0.00 0.40 0.40 81 1016.6
20260507164708 76 261 11.0 16.0 0.00 0.40 0.40 82 1016.5
20260507164206 76 251 4.0 16.0 0.00 0.40 0.40 82 1016.6
20260507163702 76 222 7.0 13.0 0.00 0.40 0.40 82 1016.8
20260507163201 75 218 6.0 10.0 0.00 0.40 0.40 84 1016.9
20260507162656 75 229 7.0 16.0 0.00 0.40 0.40 84 1017.3
20260507162152 75 216 6.0 8.0 0.00 0.40 0.40 85 1016.9
20260507161648 74 221 7.0 11.0 0.00 0.40 0.40 85 1017.2
20260507161145 74 258 7.0 11.0 0.00 0.40 0.40 86 1017.2
20260507160642 74 234 5.0 9.0 0.00 0.40 0.40 86 1017.3
20260507160138 74 193 3.0 5.0 0.00 0.40 0.40 87 1017.4
20260507155634 73 197 6.0 13.0 0.00 0.40 0.40 87 1017.4
20260507155131 73 178 1.0 8.0 0.05 0.40 0.40 87 1017.6
20260507154627 73 214 6.0 7.0 0.05 0.40 0.40 88 1017.9
20260507154125 73 210 3.0 7.0 0.00 0.39 0.39 89 1018.2
20260507153621 72 213 3.0 7.0 0.00 0.39 0.39 90 1018.1
20260507153118 72 219 5.0 6.0 0.00 0.39 0.39 90 1018.3
20260507152614 71 166 1.0 7.0 0.00 0.39 0.39 91 1018.2
20260507152110 71 264 3.0 5.0 0.00 0.39 0.39 91 1018.3
20260507151606 71 196 3.0 7.0 0.07 0.39 0.39 91 1018.4
20260507151103 71 220 5.0 7.0 0.07 0.39 0.39 91 1018.4
20260507150601 70 221 2.0 5.0 0.00 0.38 0.38 92 1018.4
20260507150057 71 230 4.0 6.0 0.00 0.38 0.38 92 1018.9
20260507145552 70 207 3.0 6.0 0.00 0.38 0.38 91 1018.4
20260507145050 70 221 3.0 5.0 0.00 0.38 0.38 91 1018.3
20260507144546 70 199 2.0 6.0 0.05 0.38 0.38 91 1018.2
20260507144044 70 235 5.0 6.0 0.00 0.37 0.37 91 1018.4
20260507143540 70 229 4.0 6.0 0.00 0.37 0.37 91 1018.2
20260507143038 70 171 5.0 7.0 0.00 0.37 0.37 91 1018.2
20260507142533 70 240 5.0 8.0 0.00 0.37 0.37 92 1018.1
20260507142031 70 202 4.0 7.0 0.07 0.37 0.37 92 1018.0
20260507141526 69 213 3.0 6.0 0.00 0.36 0.36 93 1018.0
20260507141023 69 217 4.0 8.0 0.00 0.36 0.36 93 1017.9
20260507140520 69 231 6.0 7.0 0.00 0.36 0.36 93 1017.8
20260507140012 69 200 3.0 7.0 0.05 0.36 0.36 94 1018.0
20260507135508 69 181 3.0 6.0 0.05 0.36 0.36 94 1017.7
20260507135005 69 199 5.0 8.0 0.00 0.35 0.35 94 1017.8
20260507134502 69 202 6.0 7.0 0.00 0.35 0.35 95 1017.7
20260507133957 68 181 5.0 7.0 0.00 0.35 0.35 95 1017.7
20260507133454 68 193 3.0 7.0 0.07 0.35 0.35 95 1017.5
20260507132953 68 201 5.0 7.0 0.07 0.35 0.35 96 1017.7
20260507132448 68 160 5.0 9.0 0.00 0.34 0.34 96 1018.0
20260507131945 68 243 5.0 9.0 0.00 0.34 0.34 96 1018.2
20260507131442 68 232 5.0 9.0 0.07 0.34 0.34 96 1018.2
20260507130939 68 234 7.0 9.0 0.07 0.34 0.34 96 1018.3
20260507130436 67 223 7.0 10.0 0.00 0.33 0.33 96 1018.3
20260507125935 67 197 4.0 9.0 0.05 0.33 0.33 96 1018.3
20260507125432 67 199 3.0 6.0 0.05 0.33 0.33 96 1018.5
20260507124929 67 240 3.0 6.0 0.00 0.32 0.32 96 1018.3
20260507124425 67 190 3.0 7.0 0.07 0.32 0.32 96 1018.3
20260507123924 67 203 3.0 5.0 0.07 0.32 0.32 96 1018.1
20260507123421 67 171 2.0 7.0 0.00 0.31 0.31 96 1018.3
20260507122917 66 189 4.0 5.0 0.05 0.31 0.31 96 1018.4
20260507122412 66 210 2.0 3.0 0.05 0.31 0.31 95 1018.0
20260507121909 66 177 2.0 3.0 0.00 0.30 0.30 95 1017.9
20260507121404 66 160 3.0 5.0 0.07 0.30 0.30 95 1018.4
20260507120901 66 224 2.0 7.0 0.07 0.30 0.30 95 1018.9
20260507120357 66 172 3.0 7.0 0.05 0.29 0.29 95 1018.7
20260507115854 66 218 4.0 5.0 0.05 0.29 0.29 94 1018.3
20260507115350 66 167 1.0 1.0 0.00 0.28 0.28 94 1018.0
20260507114846 66 225 3.0 3.0 0.07 0.28 0.28 94 1017.8
20260507114343 66 257 6.0 7.0 0.07 0.28 0.28 94 1017.9
20260507113840 66 83 2.0 2.0 0.05 0.27 0.27 94 1018.0
20260507113337 66 358 5.0 6.0 0.05 0.27 0.27 94 1018.1
20260507112835 66 354 3.0 6.0 0.07 0.26 0.26 94 1017.9
20260507112331 66 211 1.0 2.0 0.07 0.26 0.26 93 1017.1
20260507111830 66 217 2.0 3.0 0.05 0.25 0.25 93 1017.3
20260507111326 65 41 1.0 5.0 0.05 0.25 0.25 93 1017.6
20260507110822 65 359 2.0 6.0 0.07 0.24 0.24 93 1017.5
20260507110319 65 190 3.0 5.0 0.07 0.24 0.24 93 1017.4
20260507105816 65 216 2.0 8.0 0.05 0.23 0.23 93 1017.3
20260507105312 65 201 7.0 14.0 0.05 0.23 0.23 94 1016.7
20260507104809 65 178 13.0 17.0 0.07 0.22 0.22 95 1017.3
20260507104305 65 208 9.0 16.0 0.07 0.22 0.22 96 1017.8
20260507103802 66 184 9.0 18.0 0.07 0.21 0.21 97 1018.0
20260507103258 66 203 15.0 17.0 0.05 0.20 0.20 98 1018.1
20260507102755 67 192 13.0 16.0 0.12 0.20 0.20 97 1018.7
20260507102251 67 163 8.0 13.0 0.07 0.19 0.19 98 1019.3
20260507101747 67 198 12.0 14.0 0.05 0.18 0.18 97 1019.4
20260507101242 68 175 6.0 9.0 0.05 0.18 0.18 97 1019.8
20260507100740 67 176 6.0 8.0 0.07 0.17 0.17 97 1019.8
20260507100238 67 186 2.0 3.0 0.07 0.17 0.17 97 1020.1
20260507095736 67 191 3.0 6.0 0.05 0.16 0.16 97 1019.7
20260507095232 68 194 5.0 6.0 0.07 0.15 0.15 97 1019.6
20260507094729 68 176 3.0 5.0 0.07 0.15 0.15 97 1019.5
20260507094226 68 154 2.0 2.0 0.05 0.14 0.14 96 1019.7
20260507093723 68 150 2.0 2.0 0.12 0.14 0.14 96 1019.6
20260507093221 68 109 1.0 1.0 0.07 0.13 0.13 96 1019.6
20260507092718 68 139 1.0 2.0 0.05 0.12 0.12 96 1020.2
20260507092214 68 167 1.0 2.0 0.05 0.12 0.12 95 1020.4
20260507091711 68 157 4.0 6.0 0.07 0.11 0.11 95 1020.3
20260507091208 68 194 3.0 5.0 0.07 0.10 0.10 95 1020.8
20260507090703 68 158 1.0 3.0 0.12 0.10 0.10 94 1021.6
20260507090200 68 324 3.0 6.0 0.24 0.09 0.09 94 1022.1
20260507085657 69 173 2.0 9.0 0.24 0.07 0.07 93 1022.3
20260507085149 69 329 4.0 8.0 0.17 0.05 0.05 93 1022.0
20260507084646 69 2 9.0 11.0 0.12 0.03 0.03 92 1021.4
20260507084142 70 250 5.0 9.0 0.12 0.02 0.02 91 1021.2
20260507083639 70 309 3.0 9.0 0.05 0.01 0.01 89 1020.6
20260507083136 71 24 5.0 7.0 0.00 0.00 0.00 87 1020.0
20260507082632 71 347 5.0 6.0 0.00 0.00 0.00 85 1019.8
20260507082128 72 24 4.0 5.0 0.00 0.00 0.00 84 1019.6
20260507081625 72 152 1.0 3.0 0.00 0.00 0.00 83 1019.4
20260507081121 73 155 1.0 2.0 0.00 0.00 0.00 82 1019.4
20260507080618 73 133 0.0 2.0 0.00 0.00 0.00 81 1019.2
20260507080114 73 166 0.0 2.0 0.00 0.00 0.00 81 1019.1
20260507075609 73 162 1.0 2.0 0.00 0.00 0.00 80 1018.5
20260507075105 73 140 0.0 1.0 0.00 0.00 0.00 81 1018.7
20260507074602 73 167 0.0 2.0 0.00 0.00 0.00 81 1018.8
20260507074101 73 103 1.0 1.0 0.00 0.00 0.00 81 1018.5
20260507073556 73 116 0.0 1.0 0.00 0.00 0.00 82 1018.5
20260507073053 72 103 1.0 3.0 0.00 0.00 0.00 82 1018.8
20260507072551 73 4 4.0 7.0 0.00 0.00 0.00 83 1018.8
20260507072048 73 171 0.0 1.0 0.00 0.00 0.00 83 1018.4
20260507071545 73 171 0.0 1.0 0.00 0.00 0.00 83 1018.1
20260507071042 73 173 0.0 1.0 0.00 0.00 0.00 83 1018.4
20260507070539 73 181 1.0 2.0 0.00 0.00 0.00 83 1018.2
20260507070036 73 198 2.0 3.0 0.00 0.00 0.00 82 1018.0
20260507065532 73 199 2.0 3.0 0.00 0.00 0.00 82 1018.2
20260507065029 73 170 3.0 3.0 0.00 0.00 0.00 82 1018.3
20260507064527 73 182 2.0 5.0 0.00 0.00 0.00 82 1018.5
20260507064020 74 217 3.0 5.0 0.00 0.00 0.00 82 1018.6
20260507063516 74 206 4.0 5.0 0.00 0.00 0.00 82 1018.7
20260507063014 74 209 3.0 6.0 0.00 0.00 0.00 82 1018.7
20260507062510 74 190 3.0 7.0 0.00 0.00 0.00 82 1018.5
20260507062008 74 207 5.0 7.0 0.00 0.00 0.00 82 1018.6
20260507061506 74 180 5.0 8.0 0.00 0.00 0.00 82 1018.6
20260507061004 74 186 6.0 8.0 0.00 0.00 0.00 82 1018.5
20260507060501 74 196 2.0 5.0 0.00 0.00 0.00 82 1018.7
20260507055957 74 185 4.0 6.0 0.00 0.00 0.00 82 1018.8
20260507055452 73 193 6.0 7.0 0.00 0.00 0.00 82 1018.9
20260507054949 73 176 3.0 6.0 0.00 0.00 0.00 82 1019.1
20260507054445 74 183 2.0 5.0 0.00 0.00 0.00 81 1019.4
20260507053943 74 182 1.0 1.0 0.00 0.00 0.00 80 1019.5
20260507053440 74 149 1.0 1.0 0.00 0.00 0.00 80 1019.2
20260507052938 74 123 1.0 2.0 0.00 0.00 0.00 79 1019.0
20260507052436 74 174 0.0 1.0 0.00 0.00 0.00 79 1019.8
20260507051933 74 174 0.0 1.0 0.00 0.00 0.00 79 1019.8
20260507051430 74 169 0.0 1.0 0.00 0.00 0.00 79 1019.9
20260507050927 75 169 1.0 2.0 0.00 0.00 0.00 78 1019.8
20260507050423 75 173 2.0 2.0 0.00 0.00 0.00 77 1019.9
20260507045921 75 176 1.0 2.0 0.00 0.00 0.00 77 1020.2
20260507045417 75 173 1.0 1.0 0.00 0.00 0.00 77 1019.9
20260507044914 75 171 0.0 0.0 0.00 0.00 0.00 76 1020.0
20260507044410 75 173 0.0 1.0 0.00 0.00 0.00 75 1019.8
20260507043906 76 131 0.0 1.0 0.00 0.00 0.00 75 1019.8
20260507043357 76 164 2.0 2.0 0.00 0.00 0.00 74 1019.7
20260507042134 77 181 3.0 5.0 0.00 0.00 0.00 71 1019.5
20260507041631 77 181 3.0 5.0 0.00 0.00 0.00 71 1019.5
20260507041127 77 182 3.0 5.0 0.00 0.00 0.00 70 1019.7
20260507040625 77 173 5.0 5.0 0.00 0.00 0.00 69 1019.7
20260507040121 77 172 4.0 6.0 0.00 0.00 0.00 69 1019.7
20260507035616 77 168 3.0 5.0 0.00 0.00 0.00 69 1019.7
20260507035113 77 174 3.0 3.0 0.00 0.00 0.00 68 1019.8
20260507034610 77 171 0.0 1.0 0.00 0.00 0.00 66 1019.8
20260507034107 78 183 2.0 5.0 0.00 0.00 0.00 66 1019.6
20260507033606 78 177 4.0 5.0 0.00 0.00 0.00 66 1019.1
20260507033103 78 175 3.0 3.0 0.00 0.00 0.00 65 1019.4
20260507032600 77 187 3.0 6.0 0.00 0.00 0.00 66 1019.3
20260507032056 77 176 3.0 3.0 0.00 0.00 0.00 66 1019.0
20260507031552 77 143 2.0 3.0 0.00 0.00 0.00 66 1019.0
20260507031049 77 162 3.0 3.0 0.00 0.00 0.00 67 1019.3
20260507030546 77 147 3.0 5.0 0.00 0.00 0.00 66 1019.3
20260507030044 78 147 2.0 5.0 0.00 0.00 0.00 65 1019.5
20260507025541 78 167 1.0 2.0 0.00 0.00 0.00 64 1019.8
20260507025038 79 169 1.0 2.0 0.00 0.00 0.00 62 1019.5
20260507024536 80 179 3.0 3.0 0.00 0.00 0.00 60 1019.4
20260507024032 80 156 3.0 5.0 0.00 0.00 0.00 60 1019.3
20260507023528 80 178 4.0 6.0 0.00 0.00 0.00 60 1019.1
20260507023026 80 202 4.0 6.0 0.00 0.00 0.00 60 1019.2
20260507022522 80 218 3.0 6.0 0.00 0.00 0.00 60 1018.8
20260507022018 80 180 3.0 5.0 0.00 0.00 0.00 60 1018.9
20260507021514 80 212 2.0 2.0 0.00 0.00 0.00 60 1018.8
20260507021011 80 193 3.0 3.0 0.00 0.00 0.00 60 1018.7
20260507020508 80 193 2.0 3.0 0.00 0.00 0.00 59 1018.6
20260507020005 80 185 3.0 3.0 0.00 0.00 0.00 59 1018.7
20260507015503 80 180 3.0 5.0 0.00 0.00 0.00 59 1018.5
20260507015000 80 196 4.0 6.0 0.00 0.00 0.00 59 1018.5
20260507014457 80 185 3.0 5.0 0.00 0.00 0.00 58 1018.7
20260507013952 81 184 3.0 3.0 0.00 0.00 0.00 58 1018.8
20260507013449 81 204 2.0 3.0 0.00 0.00 0.00 58 1019.0
20260507012947 81 235 3.0 6.0 0.00 0.00 0.00 57 1018.4
20260507012443 81 200 5.0 7.0 0.00 0.00 0.00 57 1018.5
20260507011940 81 201 4.0 6.0 0.00 0.00 0.00 57 1018.7
20260507011437 81 209 4.0 6.0 0.00 0.00 0.00 57 1018.4
20260507010932 81 173 3.0 7.0 0.00 0.00 0.00 57 1018.7
20260507010427 81 171 4.0 7.0 0.00 0.00 0.00 56 1018.5
20260507005924 81 196 3.0 6.0 0.00 0.00 0.00 56 1018.8
20260507005421 81 188 3.0 7.0 0.00 0.00 0.00 56 1018.8
20260507004918 81 191 3.0 5.0 0.00 0.00 0.00 56 1018.7
20260507004414 81 189 4.0 6.0 0.00 0.00 0.00 57 1018.8
20260507003912 81 181 4.0 6.0 0.00 0.00 0.00 57 1018.8
20260507003407 81 191 3.0 3.0 0.00 0.00 0.00 57 1019.0
20260507002903 81 180 3.0 3.0 0.00 0.00 0.00 57 1018.9
20260507002359 82 182 2.0 3.0 0.00 0.00 0.00 56 1019.0
20260507001856 82 177 3.0 5.0 0.00 0.00 0.00 54 1019.0
20260507001353 83 173 1.0 3.0 0.00 0.00 0.00 53 1019.2
20260507000850 83 183 2.0 3.0 0.00 0.00 0.00 53 1019.3
20260507000345 83 203 3.0 5.0 0.00 0.00 0.00 53 1019.5
20260506235842 83 203 3.0 5.0 0.00 0.00 0.00 52 1019.4
20260506235339 84 173 3.0 3.0 0.00 0.00 0.00 52 1019.4
20260506234834 84 187 2.0 6.0 0.00 0.00 0.00 52 1018.9
20260506234332 84 168 5.0 7.0 0.00 0.00 0.00 51 1018.8
20260506233830 84 181 2.0 6.0 0.00 0.00 0.00 51 1019.1
20260506233325 85 178 2.0 5.0 0.00 0.00 0.00 51 1019.4
20260506232823 85 203 5.0 6.0 0.00 0.00 0.00 50 1019.3
20260506232318 85 197 2.0 3.0 0.00 0.00 0.00 50 1019.4
20260506231815 86 209 2.0 3.0 0.00 0.00 0.00 49 1019.0
20260506231313 86 211 6.0 9.0 0.00 0.00 0.00 48 1019.1
20260506230810 86 169 3.0 5.0 0.00 0.00 0.00 48 1019.2
20260506230307 86 244 4.0 5.0 0.00 0.00 0.00 47 1019.0
20260506225803 87 226 3.0 7.0 0.00 0.00 0.00 46 1018.8
20260506225300 87 230 2.0 6.0 0.00 0.00 0.00 46 1019.0
20260506224756 87 194 1.0 2.0 0.00 0.00 0.00 46 1018.9
20260506224254 87 214 4.0 6.0 0.00 0.00 0.00 46 1018.7
20260506223749 87 273 3.0 5.0 0.00 0.00 0.00 45 1018.9
20260506223240 87 241 7.0 8.0 0.00 0.00 0.00 45 1018.9
20260506222737 87 224 7.0 9.0 0.00 0.00 0.00 44 1019.0
20260506222232 87 210 3.0 5.0 0.00 0.00 0.00 46 1019.0
20260506221731 87 202 5.0 8.0 0.00 0.00 0.00 45 1019.3
20260506221229 87 197 7.0 11.0 0.00 0.00 0.00 45 1019.2
20260506220725 88 205 5.0 10.0 0.00 0.00 0.00 44 1019.2
20260506220220 88 183 5.0 6.0 0.00 0.00 0.00 44 1019.6
20260506215717 87 219 6.0 15.0 0.00 0.00 0.00 44 1019.5
20260506215213 89 216 5.0 9.0 0.00 0.00 0.00 43 1019.4
20260506214709 88 237 5.0 10.0 0.00 0.00 0.00 43 1019.4
20260506214206 88 221 6.0 7.0 0.00 0.00 0.00 43 1019.3
20260506213705 87 292 6.0 9.0 0.00 0.00 0.00 43 1019.4
20260506213202 87 248 3.0 9.0 0.00 0.00 0.00 43 1019.2
20260506212659 88 247 6.0 9.0 0.00 0.00 0.00 43 1019.3
20260506212200 88 278 7.0 10.0 0.00 0.00 0.00 42 1019.3
20260506211650 88 305 5.0 11.0 0.00 0.00 0.00 42 1019.1
20260506211147 89 227 7.0 11.0 0.00 0.00 0.00 41 1019.0
20260506210644 89 209 5.0 9.0 0.00 0.00 0.00 42 1019.1
20260506210140 89 232 5.0 8.0 0.00 0.00 0.00 41 1019.2
20260506205637 89 293 4.0 8.0 0.00 0.00 0.00 42 1019.1
20260506205132 89 244 7.0 16.0 0.00 0.00 0.00 43 1019.1
20260506204631 90 188 7.0 10.0 0.00 0.00 0.00 42 1019.3
20260506204127 90 253 6.0 8.0 0.00 0.00 0.00 42 1019.3
20260506203625 89 206 4.0 7.0 0.00 0.00 0.00 42 1019.6
20260506203121 89 203 4.0 9.0 0.00 0.00 0.00 43 1019.7
20260506202620 90 167 2.0 6.0 0.00 0.00 0.00 43 1019.6
20260506202116 89 170 6.0 9.0 0.00 0.00 0.00 43 1019.6
20260506201613 89 278 5.0 8.0 0.00 0.00 0.00 43 1019.8
20260506201110 89 174 1.0 8.0 0.00 0.00 0.00 43 1019.9
20260506200606 89 263 4.0 5.0 0.00 0.00 0.00 43 1020.0
20260506195559 89 246 6.0 8.0 0.00 0.00 0.00 43 1019.9
20260506195056 89 307 4.0 7.0 0.00 0.00 0.00 42 1020.0
20260506194554 89 190 7.0 13.0 0.00 0.00 0.00 42 1020.0
20260506194049 89 186 3.0 7.0 0.00 0.00 0.00 43 1020.1
20260506193548 88 205 2.0 3.0 0.00 0.00 0.00 44 1020.1
20260506193045 88 226 7.0 9.0 0.00 0.00 0.00 43 1020.3
20260506192541 87 192 6.0 9.0 0.00 0.00 0.00 44 1020.2
20260506192037 88 211 6.0 10.0 0.00 0.00 0.00 44 1020.3